Simultaneous Nadir Overpasses (SNOs) Predictions

Prediction of SNOs between METOP-B and NOAA-19 Satellite Orbit:

Table of predicted SNOs for the next 14.0 days since TLE Epoch: 11/1/2013
Index Date (METOP-B) Time (METOP-B) Lat,Lon (METOP-B) SZA (METOP-B ) Date (NOAA-19) Time (NOAA-19) Lat,Lon (NOAA-19) SZA (NOAA-19 ) Distance(km) Time Diff (sec)
1 11/01/2013 21:32:59 73.60,-149.27 88.21 11/01/2013 21:31:44 73.61,-149.35 88.22 2.50 75
2 11/01/2013 22:23:41 -73.56, 17.96 91.82 11/01/2013 22:22:47 -73.55, 18.02 91.83 2.45 54
3 11/01/2013 23:14:22 73.53,-174.78 88.16 11/01/2013 23:13:47 73.54,-174.72 88.18 2.84 35
4 11/02/2013 00:05:03 -73.54, -7.43 91.82 11/02/2013 00:04:51 -73.53, -7.46 91.83 1.00 12
5 11/02/2013 00:55:44 73.50, 159.82 88.16 11/02/2013 00:55:51 73.53, 159.79 88.19 3.31 7
6 11/02/2013 01:46:26 -73.46, -32.94 91.87 11/02/2013 01:46:54 -73.47, -32.83 91.87 3.55 28
7 11/02/2013 02:37:06 73.48, 134.43 88.16 11/02/2013 02:37:54 73.47, 134.42 88.15 1.07 48
8 11/02/2013 03:27:48 -73.44, -58.33 91.87 11/02/2013 03:28:58 -73.46, -58.32 91.86 2.01 70
9 11/02/2013 04:18:40 72.85, 107.72 87.57 11/02/2013 04:19:47 72.91, 110.17 87.60 80.82 67
10 11/11/2013 23:07:01 74.05,-171.76 91.63 11/11/2013 23:05:52 74.08,-173.94 91.69 66.69 69
11 11/11/2013 23:57:52 -73.59, -5.53 88.82 11/11/2013 23:56:48 -73.58, -5.49 88.83 1.59 64
12 11/12/2013 00:48:32 73.58, 161.77 91.18 11/12/2013 00:47:46 73.58, 161.78 91.19 0.16 46
13 11/12/2013 01:39:14 -73.57, -30.93 88.82 11/12/2013 01:38:52 -73.57, -30.98 88.82 1.71 22
14 11/12/2013 02:29:54 73.56, 136.38 91.18 11/12/2013 02:29:50 73.57, 136.29 91.19 3.29 4
15 11/12/2013 03:20:37 -73.49, -56.44 88.88 11/12/2013 03:20:55 -73.51, -56.35 88.86 3.31 18
16 11/12/2013 04:11:16 73.53, 110.98 91.17 11/12/2013 04:11:53 73.51, 110.91 91.15 3.14 37
17 11/12/2013 05:01:59 -73.47, -81.83 88.88 11/12/2013 05:02:59 -73.50, -81.84 88.85 3.40 60
18 11/12/2013 05:52:42 73.30, 85.13 90.97 11/12/2013 05:53:54 73.35, 85.77 91.01 20.95 72




NCC Satellite Simultaneous Nadir Overpasses (
